Location: Vale
(35.4830°N, 81.3830°W)
Time: 20:54:21
(UTC-04:00)

SR - All Passes

Search period start: 26 March 2017 00:00
Search period end: 05 April 2017 00:00
Orbit: 574 x 884 km, 66.7° (Epoch: 25 March)

Date Brightness Start Highest point End Pass type
(mag) Time Alt. Az. Time Alt. Az. Time Alt. Az.
26 Mar - 12:41:49 10° SSE 12:46:01 26° ESE 12:50:31 10° NE daylight
26 Mar - 14:23:05 10° WSW 14:27:53 37° NW 14:33:05 10° N daylight
26 Mar - 21:26:20 10° NNE 21:29:34 15° NE 21:32:44 10° ENE visible
26 Mar - 23:06:37 10° NNW 23:12:35 87° ENE 23:18:13 10° SSE visible
27 Mar - 00:52:13 10° W 00:53:46 11° W 00:55:20 10° WSW visible
27 Mar - 11:55:13 10° ESE 11:57:05 12° E 11:58:59 10° E daylight
27 Mar - 13:33:10 10° SSW 13:38:18 74° WNW 13:43:56 10° NNE daylight
27 Mar - 15:19:43 10° WNW 15:21:31 11° NW 15:23:22 10° NNW daylight
27 Mar - 22:17:22 10° NNW 22:23:03 45° ENE 22:28:29 10° SE visible
28 Mar - 00:00:14 10° NW 00:04:51 24° WSW 00:09:15 10° SSW visible
28 Mar - 12:44:00 10° S 12:48:58 54° ESE 12:54:24 10° NE daylight
28 Mar - 14:27:30 10° W 14:31:29 21° NW 14:35:42 10° N daylight
28 Mar - 21:28:30 10° N 21:33:19 25° NE 21:37:58 10° ESE visible
28 Mar - 23:10:03 10° NW 23:15:44 49° WSW 23:21:06 10° S visible
29 Mar - 11:55:42 10° SSE 11:59:51 25° ESE 12:04:18 10° NE daylight
29 Mar - 13:36:49 10° SW 13:41:41 38° NW 13:46:58 10° NNE daylight
29 Mar - 20:40:19 10° NNE 20:43:20 14° NE 20:46:20 10° ENE visible
29 Mar - 22:20:27 10° NNW 22:26:24 84° ENE 22:32:02 10° SSE visible
30 Mar - 00:05:41 10° W 00:07:38 12° W 00:09:34 10° WSW visible
30 Mar - 11:09:24 10° ESE 11:10:56 11° E 11:12:30 10° E daylight
30 Mar - 12:46:57 10° SSW 12:52:07 77° WNW 12:57:47 10° NNE daylight
30 Mar - 14:33:10 10° WNW 14:35:17 12° NW 14:37:28 10° NNW daylight
30 Mar - 21:31:13 10° NNW 21:36:52 43° ENE 21:42:14 10° SE visible
30 Mar - 23:13:59 10° NW 23:18:41 25° WSW 23:23:11 10° SSW visible
31 Mar - 11:57:50 10° S 12:02:48 51° ESE 12:08:13 10° NE daylight
31 Mar - 13:41:10 10° W 13:45:16 22° NW 13:49:36 10° N daylight
31 Mar - 20:42:24 10° N 20:47:06 24° NE 20:51:39 10° ESE visible
31 Mar - 22:23:52 10° NW 22:29:34 52° WSW 22:34:56 10° S visible
01 Apr - 11:09:36 10° SSE 11:13:42 24° ESE 11:18:04 10° NE daylight
01 Apr - 12:50:33 10° SW 12:55:29 40° WNW 13:00:50 10° NNE daylight
01 Apr - 19:54:17 10° NNE 19:57:07 13° NE 19:59:54 10° ENE daylight
01 Apr - 21:34:18 10° NNW 21:40:14 80° ENE 21:45:50 10° SSE visible
01 Apr - 23:19:14 10° WNW 23:21:30 12° W 23:23:43 10° SW visible
02 Apr - 10:23:40 10° ESE 10:24:47 11° E 10:25:54 10° E daylight
02 Apr - 12:00:44 10° SSW 12:05:56 81° WNW 12:11:38 10° NNE daylight
02 Apr - 13:46:39 10° WNW 13:49:03 13° NW 13:51:31 10° NNW daylight
02 Apr - 20:45:05 10° NNW 20:50:40 41° ENE 20:55:59 10° SE visible
02 Apr - 22:27:46 10° NW 22:32:32 27° WSW 22:37:06 10° SSW visible
03 Apr - 11:11:39 10° S 11:16:37 49° ESE 11:22:01 10° NE daylight
03 Apr - 12:54:50 10° WSW 12:59:03 23° NW 13:03:31 10° N daylight
03 Apr - 19:56:17 10° N 20:00:53 23° NE 20:05:20 10° ESE daylight
03 Apr - 21:37:40 10° NW 21:43:24 54° WSW 21:48:47 10° S visible
04 Apr - 10:23:30 10° SSE 10:27:32 23° ESE 10:31:49 10° NE daylight
04 Apr - 12:04:16 10° SW 12:09:16 42° WNW 12:14:42 10° NNE daylight
04 Apr - 19:08:17 10° NNE 19:10:53 13° NE 19:13:27 10° ENE daylight
04 Apr - 20:48:08 10° NNW 20:54:03 76° ENE 20:59:37 10° SSE visible
04 Apr - 22:32:49 10° WNW 22:35:21 13° WSW 22:37:49 10° SW visible
